Location: *
(41.7492°S, 135.4150°W)
Time: 00:29:49
(UTC+00:00)

Okean O Rocket - Pass Details

Date: 20 September 2021
Orbit: 622 x 644 km, 98.2° (Epoch: 25 October)

Event Time Altitude Azimuth Distance (km) Brightness Sun altitude
Rises 14:13:44 0° 48° (NE) 2,927 5.7 -8.3°
Reaches altitude 10° 14:16:15 10° 62° (ENE) 2,031 5.2 -7.8°
Maximum altitude 14:19:45 23° 114° (ESE) 1,362 4.4 -7.1°
Drops below altitude 10° 14:23:18 10° 166° (SSE) 2,064 4.5 -6.5°
Sets 14:25:52 0° 180° (S) 2,986 5.1 -6.0°
